Find Starlink 31516

NORAD ID: 59221 Int'l Des: 2024-046 Owner: SPXS Country: US Constellation: starlink operational
LEOCIRCULAR

Current View

Loading 3D Globe...

About Starlink 31516

Starlink 31516 (NORAD 59221) is a starlink constellation satellite (v2 mini) launched Mar 11, 2024 by SPXS of US. It operates in LEO, CIRCULAR orbit with a mass of 730.00 kg.

About Starlink 31516

Description loading...

Upcoming Passes

Passes for default location (London). Set your location on the main map for personalized predictions.

Altitude History

Loading altitude history...

Two-Line Element Set

1 59221U 24046W 26170.95550142 .00002121 00000-0 73866-4 0 9992
2 59221 53.1602 38.4335 0001072 105.2832 254.8289 15.34404071128722
Epoch: Jun 19, 2026 • Age: 17 hours

Current Status

Altitude 476.9 km
Velocity 7.63 km/s
Sub-Earth Point -41.41°S, 113.62°E
Launch Date Mar 11, 2024
Age 2.2 years
Type internet

Technical Details

Classification Payload
Mass 730.00 kg
Dry Mass 700.00 kg
Total Mass 730.00 kg
Length 0.30 m
Diameter 4.10 m
Span 29.00 m
Shape Box + pan
Manufacturer SPXS
Bus Type Starlink V2M
Phase Status In Orbit
Owner/State SPXS/US

Most Searched